SCP
0 0 0 0 0 0 0 0 0 0 0 0 0 0 0 0 0 0 0 0 0 0 0 0 0 0 0 0 0 0 0 0 0 0 0 0 0 0 0 0 0 0 0 0 0 0 0 0 0
0 0 0 0 0 0 0 0 0 0 0 0 0 0 0 0 0 0 0 0 0 0 0 0 0 0 0 0 0 0 0 0 0 0 0 0 0 0 0 0 0 0 0 0 0 0 0 0 0
0 0 0 0 0 0 0 0 0 0 0 0 0 0 0 0 0 0 0 0 0 0 0 0 0 0 0 0 0 0 0 0 0 0 0 0 0 0 0 0 0 0 0 0 0 0 0 0 0
0 0 0 0 0 0 0 0 0 0 0 0 0 0 0 0 0 0 0 0 0 0 0 0 0 0 0 0 0 0 0 0 0 0 0 0 0 0 0 0 0 0 0 0 0 0 0 0 0
0 0 0 0 0 0 0 0 0 0 0 0 0 0 0 0 0 0 0 0 0 0 0 0 0 0 0 0 0 0 0 0 0 0 0 0 0 0 0 0 0 0 0 0 0 0 0 0 0
0 0 0 0 0 0 0 0 0 0 0 0 0 0 0 0 0 0 0 0 0 0 0 0 0 0 0 0 0 0 0 0 0 0 0 0 0 0 0 0 0 0 0 0 0 0 0 0 0
0 0 0 0 0 0 0 0 0 0 0 0 0 0 0 0 0 0 0 0 0 0 0 0 0 0 0 0 0 0 0 0 0 0 0 0 0 0 0 0 0 0 0 0 0 0 0 0 0
0 0 0 0 0 0 0 -0 0 0 0 0 0 0 0 0 0 0 0 0 0 0 0 0 0 0 0 0 0 0 0 0 0 0 0 0 0 0 0 0 0 0 0 0 0 0 0 0 0
0 0 0 0 0 0 0 -0 0 0 0 0 0 0 0 0 0 0 0 0 0 0 0 0 0 0 0 0 0 0 0 0 0 0 0 0 0 0 0 0 0 0 0 0 0 0 0 0 0
0 0 0 0 0 0 0 0 0 0 0 0 0 0 0 0 0 0 0 0 0 0 0 0 0 0 0 0 0 0 0 0 0 0 0 0 0 0 0 0 0 0 0 0 0 0 0 0 0
0 0 0 0 0 0 0 0 0 0 0 0 0 0 0 0 0 0 0 0 0 0 0 0 0 0 0 0 0 0 0 0 0 0 0 0 0 0 0 0 0 0 0 0 0 0 0 0 0
0 0 0 0 0 0 0 0 0 0 0 0 0 0 0 0 0 0 0 0 0 0 0 0 0 0 0 0 0 0 0 0 0 0 0 0 0 0 0 0 0 0 0 0 0 0 0 0 0
0 0 0 0 0 0 0 0 0 0 0 0 0 0 0 0 0 0 0 0 0 0 0 0 0 0 0 0 0 0 0 0 0 0 0 0 0 0 0 0 0 0 0 0 0 0 0 0 0
0 0 0 0 0 0 0 0 0 0 0 0 0 0 0 0 0 0 0 0 0 0 0 0 0 0 0 0 0 0 0 0 0 0 0 0 0 0 0 0 0 0 0 0 0 0 0 0 0
0 0 0 0 0 0 0 0 0 0 0 0 0 0 0 0 0 0 0 0 0 0 0 0 0 0 0 0 0 0 0 0 0 0 0 0 0 0 0 0 0 0 0 0 0 0 0 0 0
0 0 0 0 0 0 0 0 0 0 0 0 0 0 0 0 0 0 0 0 0 0 0 0 0 0 0 0 0 0 0 0 0 0 0 0 0 0 0 0 0 0 0 0 0 0 0 0 0
0 0 0 0 0 0 0 0 0 0 0 0 0 0 0 0 0 0 0 0 0 0 0 0 0 0 0 0 0 0 0 0 0 0 0 0 0 0 0 0 0 0 0 0 0 0 0 0 0
0 0 0 0 0 0 0 0 0 0 0 0 0 0 0 0 0 0 0 0 0 0 0 -0 0 0 0 0 0 0 0 0 0 0 0 0 0 0 0 0 0 0 0 0 0 0 0 0 0
0 0 0 0 0 0 0 0 0 0 0 0 0 0 0 0 0 0 0 0 0 0 0 0 0 0 0 0 0 0 0 0 0 0 0 0 0 0 0 0 0 0 0 0 0 0 0 0 0
0 0 0 0 0 0 0 0 0 0 0 0 0 0 0 0 0 0 0 0 0 0 0 0 0 0 0 0 0 0 0 0 0 0 0 0 0 0 0 0 0 0 0 0 0 0 0 0 0
0 0 0 0 0 0 0 0 0 0 0 0 0 0 0 0 0 0 0 0 0 0 0 0 0 0 0 0 0 0 0 0 0 0 0 0 0 0 0 0 0 0 0 0 0 0 0 0 0
0 0 0 0 0 0 0 0 0 0 0 0 0 0 0 0 0 0 0 0 0 0 0 0 0 0 0 0 0 0 0 0 0 0 0 0 0 0 0 0 0 0 0 0 0 0 0 0 0
0 0 0 0 0 0 0 0 0 0 0 0 0 0 0 0 0 0 0 0 0 0 0 0 0 0 0 0 0 0 0 0 0 0 0 0 0 0 0 0 0 0 0 0 0 0 0 0 0
0 0 0 0 0 0 0 0 0 0 0 0 0 0 0 0 0 0 0 0 0 0 0 0 0 0 0 0 0 0 0 0 0 0 0 0 0 0 0 0 0 0 0 0 0 0 0 0 0
0 0 0 0 0 0 0 0 0 0 0 0 0 0 0 0 0 0 0 0 0 0 0 0 0 0 0 0 0 0 0 0 0 0 0 0 0 0 0 0 0 0 0 0 0 0 0 0 0
0 0 0 0 0 0 0 0 0 0 0 0 0 0 0 0 0 0 0 0 0 0 0 0 0 0 0 0 0 0 0 0 0 0 0 0 0 0 0 0 0 0 0 0 0 0 0 0 0
0 0 0 0 0 0 0 0 0 0 0 0 0 0 0 0 0 0 0 0 0 0 0 0 0 0 0 0 0 0 0 0 0 0 0 0 0 0 0 0 0 0 0 0 0 0 0 0 0
0 0 0 0 0 0 0 0 0 0 0 0 0 0 0 0 0 0 0 0 0 0 0 0 0 0 0 0 0 0 0 0 0 0 0 0 0 0 0 0 0 0 0 0 0 0 0 0 0
0 0 0 0 0 0 0 0 0 0 0 0 0 0 0 0 0 0 0 0 0 0 0 0 0 0 0 0 0 0 0 0 0 0 0 0 0 0 0 0 0 0 0 0 0 0 0 0 0
0 0 0 0 0 0 0 0 0 0 0 0 0 0 0 0 0 0 0 0 0 0 0 0 0 0 0 0 0 0 0 0 0 0 0 0 0 0 0 0 0 0 0 0 0 0 0 0 0
Wind_Speed
8 4 2 4 5 4 2 4 2 1 1 0 1 4 5 3 2 3 1 3 5 6 4 5 7 9 10 10 10 11 11 11 11 11 11 11 11 11 11 10 10 9 10 10 10 10 10 10 10
3 2 4 5 4 1 3 3 2 3 2 1 2 3 4 3 2 4 2 2 7 7 5 5 7 9 10 10 10 11 10 10 10 11 10 10 10 10 10 10 9 9 9 9 9 9 9 9 9
2 2 4 4 3 5 4 3 4 1 1 1 2 3 3 3 2 3 3 5 7 6 4 5 8 9 9 9 10 10 9 9 10 10 10 10 10 10 9 9 9 8 8 8 8 8 8 8 8
3 4 4 3 3 4 4 3 2 2 2 2 3 3 2 1 2 3 5 7 7 5 4 5 8 9 9 9 9 9 9 8 8 9 9 9 9 9 9 9 8 8 8 8 8 7 7 7 7
4 4 3 1 4 3 3 3 1 1 0 1 2 3 1 2 3 6 7 7 7 5 4 5 7 8 8 8 8 8 8 8 8 8 8 8 8 8 8 8 7 7 7 7 7 7 7 6 6
4 3 3 4 5 3 3 2 1 1 1 0 2 3 1 0 4 5 6 6 7 6 5 4 6 7 7 7 8 8 8 8 8 8 7 7 8 8 7 7 6 6 6 6 7 6 6 6 7
4 3 3 4 4 3 3 1 1 2 2 2 2 4 2 1 3 4 5 6 6 6 5 4 3 4 6 7 7 7 7 7 7 7 7 7 7 7 6 6 6 6 6 6 6 6 6 6 6
4 3 2 2 4 4 2 0 1 2 3 1 2 5 5 5 5 5 5 5 5 5 4 4 3 3 3 4 6 6 6 7 6 6 7 6 6 6 6 5 5 5 5 5 5 5 5 5 5
3 3 4 4 4 4 1 0 2 1 1 1 1 1 3 7 7 7 5 4 4 4 3 3 4 3 3 3 4 5 5 6 6 5 6 5 3 3 3 4 5 5 4 4 4 4 4 5 5
4 4 6 3 3 3 1 1 1 1 1 1 2 2 3 7 8 8 7 6 5 4 3 3 4 4 4 3 3 3 3 3 3 2 3 2 2 2 3 4 5 4 4 4 4 4 4 4 2
3 5 3 2 1 1 1 1 0 2 2 4 4 4 5 5 6 7 7 6 6 6 5 4 4 4 4 3 3 2 2 2 2 2 2 2 2 2 2 2 2 2 3 2 2 3 2 2 1
2 3 3 2 1 1 2 1 1 3 6 3 3 4 5 5 6 7 7 7 6 6 5 4 4 4 4 3 3 3 2 2 2 2 3 2 2 2 1 1 1 1 1 1 1 1 1 1 1
4 3 2 2 1 1 1 3 3 5 5 2 2 3 4 5 5 5 5 5 6 6 6 6 5 5 4 4 3 3 3 2 2 2 2 3 2 2 1 1 1 1 1 1 1 1 1 1 1
3 3 2 3 3 2 2 4 2 8 4 2 3 4 5 6 6 4 4 5 6 7 7 6 6 5 5 4 3 3 3 3 2 2 2 3 2 2 2 1 1 1 1 1 1 1 0 0 0
1 1 3 4 3 3 2 5 8 8 3 4 4 5 5 6 5 6 7 6 7 7 6 7 7 6 6 5 4 3 3 3 2 2 2 2 3 3 2 2 1 1 1 1 1 1 1 1 1
0 1 4 5 4 3 4 10 8 5 5 6 6 5 5 6 6 6 6 5 6 6 6 6 6 6 6 5 4 3 3 3 2 2 2 2 2 3 2 2 1 1 1 1 1 1 1 0 1
0 3 5 4 4 3 5 9 6 5 6 7 7 6 6 5 5 5 5 5 6 6 6 6 5 6 6 5 4 3 3 3 3 3 3 3 3 3 2 2 2 2 1 1 1 1 1 1 0
5 5 4 6 4 4 7 10 7 5 7 8 7 6 6 6 7 6 5 5 4 5 5 5 5 5 4 4 3 2 3 2 2 3 3 4 3 3 3 2 2 2 1 1 1 1 1 1 1
4 4 6 6 3 4 9 11 10 7 7 8 8 7 7 7 5 4 3 3 4 4 4 5 5 4 4 3 3 3 3 2 2 2 3 4 3 4 3 2 2 2 2 2 2 1 1 1 0
5 5 6 5 3 4 7 12 10 8 9 9 9 8 7 5 3 3 3 2 3 4 4 5 4 4 4 3 3 2 3 2 3 2 2 3 3 4 3 3 3 3 2 2 2 2 1 0 1
6 7 7 5 4 3 4 9 6 6 5 5 6 7 6 6 5 4 4 4 3 3 4 4 4 4 4 3 2 2 1 1 1 2 2 3 4 4 3 3 3 3 3 3 3 3 3 2 1
8 5 5 4 3 4 2 7 8 5 5 6 7 5 5 4 4 4 4 4 3 3 2 3 3 3 3 4 4 4 3 3 3 2 2 2 3 3 3 3 3 3 3 3 3 3 2 3 2
5 3 3 3 4 4 3 5 9 2 6 8 6 6 5 4 4 4 4 4 3 3 2 3 3 3 3 3 4 4 3 2 1 1 2 2 2 3 3 3 3 3 3 3 3 3 3 3 3
3 1 1 0 1 7 7 7 9 5 8 6 5 5 4 4 3 3 2 3 2 2 2 2 3 3 3 3 3 4 4 3 2 2 2 2 1 2 3 3 3 3 3 3 3 4 4 4 3
2 3 1 2 2 8 4 6 10 6 5 6 6 5 3 3 3 3 2 2 2 2 2 2 3 3 3 3 3 3 4 4 4 3 3 2 2 2 2 2 3 3 3 3 3 3 3 4 4
5 6 6 6 6 5 3 8 7 4 2 1 1 2 2 2 2 3 3 3 3 2 2 2 3 3 3 3 3 2 3 3 2 3 2 3 2 2 2 3 3 3 3 3 3 3 3 3 4
5 5 4 2 1 3 6 6 7 1 1 2 2 2 0 1 2 2 2 2 2 3 3 3 3 3 3 2 2 2 2 2 2 2 2 2 2 2 2 2 2 2 2 3 3 3 3 3 4
3 4 3 4 4 5 6 5 5 3 2 1 1 1 1 1 1 1 1 1 1 1 1 1 2 2 2 2 2 2 1 2 2 2 2 2 2 1 2 2 2 2 2 3 2 2 3 3 3
4 4 4 3 4 5 5 6 4 3 3 2 2 1 1 2 2 1 1 1 0 1 1 1 1 1 1 1 1 1 1 1 1 1 1 1 1 2 2 2 2 2 3 2 2 3 3 3 3
5 7 7 6 6 5 5 7 2 2 1 1 1 2 1 1 1 1 1 1 1 1 1 1 1 1 1 1 1 1 1 1 1 0 1 1 1 1 2 2 2 2 3 3 3 3 3 3 4
Wind_Direction
331 339 54 58 59 58 243 256 243 305 354 44 87 100 108 107 125 145 147 128 126 140 148 142 132 131 126 123 123 121 117 115 112 109 108 105 102 98 94 90 87 86 87 86 84 80 78 76 72
331 5 55 63 95 141 258 246 233 245 214 139 62 83 88 85 84 114 122 128 128 136 137 138 129 129 127 126 125 123 119 116 114 111 110 109 105 102 98 93 90 88 88 87 85 82 77 76 73
334 64 82 84 136 185 213 219 200 226 292 121 74 54 96 128 143 155 159 138 124 125 128 131 127 129 128 128 127 126 122 119 117 115 113 112 109 105 100 95 91 89 88 86 85 83 76 74 71
61 52 62 90 209 223 211 223 182 142 13 38 106 74 63 36 162 156 133 129 124 124 123 125 124 126 126 127 129 130 126 123 121 119 119 116 112 108 102 96 92 89 88 86 86 85 78 74 70
66 84 88 182 235 240 239 251 238 143 348 0 107 117 91 355 92 121 128 129 129 126 122 128 120 121 123 125 126 131 130 127 125 122 122 120 116 109 104 100 95 90 87 86 86 82 77 72 67
68 80 122 217 231 244 259 259 199 160 221 285 119 129 170 92 118 131 127 129 131 132 126 127 124 122 123 124 123 120 124 124 121 120 119 116 112 108 104 100 97 92 89 89 87 83 77 70 64
114 118 182 205 222 244 252 281 173 195 199 225 159 135 174 187 162 137 122 120 121 126 127 128 134 133 127 121 115 110 112 114 116 118 113 106 101 98 95 91 91 91 90 89 88 82 75 69 61
136 122 192 210 205 229 253 317 212 209 219 255 133 153 191 195 159 124 110 106 110 115 125 136 132 127 133 134 118 109 105 103 104 104 100 97 94 92 87 84 81 81 86 89 88 81 71 63 55
105 106 209 209 200 219 224 9 310 327 96 7 36 168 186 145 136 124 115 105 114 119 130 138 142 139 138 137 128 121 114 105 100 95 93 91 83 88 87 80 80 78 77 86 85 76 63 55 47
113 183 219 213 192 190 202 198 255 18 0 358 11 33 110 132 141 146 151 154 153 156 159 152 149 151 146 144 134 129 121 115 106 102 104 99 92 85 87 78 79 75 73 79 75 63 52 47 34
161 199 205 243 238 198 215 264 314 145 249 216 197 183 155 147 156 165 171 172 173 170 164 164 158 155 153 148 140 136 125 122 115 113 115 109 100 91 83 82 71 67 66 64 58 51 43 40 30
180 229 195 218 249 239 227 211 255 218 231 223 193 177 164 170 183 184 183 182 172 167 173 168 163 158 158 150 150 145 144 140 137 139 137 129 117 104 106 98 93 87 80 87 74 60 38 22 7
216 224 215 215 217 229 223 227 223 255 245 222 157 156 174 189 195 198 190 182 176 174 177 174 168 166 163 154 158 152 158 156 156 154 153 141 138 142 139 129 122 128 124 133 117 82 47 18 358
215 211 235 241 247 239 218 259 226 252 226 184 180 197 201 202 204 204 196 192 190 185 182 176 174 172 164 163 165 165 164 159 154 152 153 151 145 145 151 147 154 179 179 165 158 157 148 35 28
206 238 275 242 217 218 183 273 237 237 198 213 224 216 209 213 207 209 207 200 196 189 182 179 178 171 169 170 170 164 162 155 155 158 158 152 144 146 148 154 172 199 185 160 136 112 84 61 31
356 222 256 251 203 200 175 251 250 221 198 224 230 231 226 227 216 214 212 204 193 182 181 184 178 172 174 174 173 166 161 161 163 165 167 167 160 155 151 155 179 185 164 156 153 141 116 65 18
255 230 238 259 216 188 199 247 251 218 205 227 229 230 231 233 231 221 209 201 189 179 175 176 174 174 176 174 169 165 162 168 171 171 174 178 173 164 159 170 180 168 156 161 176 158 154 165 322
213 223 235 233 232 202 228 249 257 236 221 230 231 234 234 228 233 222 204 187 173 171 169 169 168 168 169 167 158 159 158 172 173 176 182 178 178 175 168 168 173 164 158 172 177 173 149 162 199
201 219 245 246 235 226 240 255 259 241 233 237 236 230 231 236 232 206 188 169 155 156 161 166 165 166 159 163 170 176 186 185 184 182 181 180 178 176 174 174 174 173 179 191 178 159 140 104 94
238 251 260 278 246 237 260 265 258 239 227 227 226 225 229 233 229 197 179 165 167 172 175 172 172 165 168 176 175 175 174 183 186 184 186 188 183 182 184 181 183 180 175 171 169 148 150 152 134
234 229 238 256 305 288 294 287 263 253 235 234 230 225 223 215 211 201 186 181 175 177 179 177 177 167 169 163 142 125 114 112 168 191 196 197 192 189 188 187 181 179 178 193 194 176 164 183 204
239 230 226 233 252 267 221 279 266 241 247 241 241 236 227 217 201 195 185 175 176 190 180 169 168 163 166 156 159 167 178 191 203 199 200 197 193 191 192 187 184 186 189 196 202 191 178 171 200
220 227 225 232 232 266 234 248 276 235 245 245 239 234 228 208 195 188 183 179 173 171 168 165 155 159 159 159 170 176 181 188 181 184 191 199 201 197 195 192 190 194 197 204 202 197 193 188 196
178 69 17 57 160 254 225 214 271 229 227 240 234 232 220 196 184 170 160 149 149 149 150 151 154 161 163 167 169 178 180 174 170 185 194 205 215 212 203 200 199 202 203 209 211 206 203 204 202
145 125 13 323 266 248 211 215 249 242 233 225 226 227 212 184 167 159 158 158 161 160 162 156 157 165 168 169 174 183 182 177 182 188 197 203 213 228 220 211 210 211 211 212 212 210 213 209 209
203 179 182 209 229 262 234 231 249 253 264 243 195 182 175 178 178 177 182 181 178 176 173 166 163 167 168 169 178 182 179 179 187 193 196 204 213 223 224 219 218 219 214 213 209 213 217 215 215
180 210 202 174 243 259 254 267 291 287 3 23 45 67 139 202 193 194 187 189 186 186 193 185 177 170 167 164 164 165 171 176 185 193 193 205 215 217 213 217 220 221 218 216 206 215 219 217 222
188 171 151 176 194 245 263 248 244 253 263 292 22 3 285 267 203 187 189 202 199 193 198 172 172 173 160 151 154 153 172 178 173 172 193 205 211 206 208 217 219 221 224 222 211 221 221 221 230
181 188 185 189 197 199 250 257 230 218 225 222 251 258 233 222 201 186 197 182 129 77 95 102 118 134 137 140 137 131 140 153 153 174 197 213 221 215 213 220 223 226 232 224 218 225 222 229 239
202 198 180 193 229 220 238 261 276 230 233 221 286 316 321 242 196 189 187 122 85 75 71 79 77 106 149 152 146 143 127 110 120 214 232 231 233 231 230 229 233 236 238 230 224 227 225 229 239